This is the latest recevied weather packets stored in our database for station/object F4IVW-13. If no packets are shown the sender has not sent any weather packets the latest 10 day(s).
| Time | Temp. | Humidity | Pressure | Rain* | Wind** | Luminosity | Snow |
|---|---|---|---|---|---|---|---|
| 1778003004 | 14.44° C | 99% | 1013.3 hPa | 0 mm | - | 0 W/m² | - |
| 1778002687 | 15° C | 99% | 1013.4 hPa | 0 mm | - | 0 W/m² | - |
| 1778002370 | 15.56° C | 99% | 1013.4 hPa | 0 mm | - | 0 W/m² | - |
| 1778002054 | 15° C | 99% | 1013.3 hPa | 0 mm | - | 0 W/m² | - |
| 1778001744 | 15° C | 99% | 1013.4 hPa | 0 mm | - | 0 W/m² | - |
| 1778001417 | 15.56° C | 99% | 1013.3 hPa | 0 mm | - | 0 W/m² | - |
| 1778001102 | 15.56° C | 99% | 1013.4 hPa | 0 mm | - | 0 W/m² | - |
| 1778000779 | 15.56° C | 99% | 1013.4 hPa | 0 mm | - | 0 W/m² | - |
| 1778000466 | 16.11° C | 99% | 1013.3 hPa | 0 mm | - | 1 W/m² | - |
| 1777999825 | 15.56° C | 99% | 1013.4 hPa | 0 mm | - | 1 W/m² | - |
| 1777999517 | 16.11° C | 99% | 1013.4 hPa | 0 mm | - | 2 W/m² | - |
| 1777999192 | 16.67° C | 99% | 1013.4 hPa | 0 mm | - | 1 W/m² | - |
| 1777998871 | 17.78° C | 99% | 1013.4 hPa | 0 mm | - | 1 W/m² | - |
| 1777998236 | 16.67° C | 99% | 1013.5 hPa | 0 mm | - | 4 W/m² | - |
| 1777997916 | 16.67° C | 99% | 1013.5 hPa | 0 mm | - | 2 W/m² | - |
| 1777997599 | 17.22° C | 99% | 1013.6 hPa | 0 mm | - | 1 W/m² | - |
| 1777997290 | 17.78° C | 99% | 1013.5 hPa | 0 mm | - | 2 W/m² | - |
| 1777996965 | 17.78° C | 99% | 1013.6 hPa | 0 mm | - | 1 W/m² | - |
| 1777996648 | 17.78° C | 99% | 1013.5 hPa | 0 mm | - | 2 W/m² | - |
| 1777996331 | 17.78° C | 99% | 1013.5 hPa | 0 mm | - | 1 W/m² | - |
| 1777996015 | 17.22° C | 99% | 1013.4 hPa | 0 mm | - | 2 W/m² | - |
| 1777995696 | 18.33° C | 99% | 1013.4 hPa | 0 mm | - | 6 W/m² | - |
| 1777995385 | 17.22° C | 99% | 1013.5 hPa | 0 mm | - | 2 W/m² | - |
| 1777995062 | 16.67° C | 99% | 1013.3 hPa | 0 mm | - | 12 W/m² | - |
| 1777994745 | 16.67° C | 99% | 1013.4 hPa | 0 mm | - | 13 W/m² | - |
* Rain latest hour (hover to see other rain measurements)
** Current wind speed in m/s (hover to see current wind gust speed)